Fairbanks, AK

1:45 AM AKDT on June 25, 2017 (GMT -0800)
Fairbanks International

Weather History for PAFA - March, 2011

Change the Weather History Date:

Wednesday, March 30, 2011

  Actual Average Record
Temperature  
Mean Temperature 21 °F 20 °F  
Max Temperature 36 °F 33 °F 52 °F (1993)
Min Temperature 6 °F 7 °F -40 °F (1944)
Degree Days  
Heating Degree Days 44 45  
Month to date heating degree days 1725 1616  
Since 1 July heating degree days 12015 12006  
Cooling Degree Days 0 0  
Month to date cooling degree days 0 0  
Year to date cooling degree days 0 0  
Moisture  
Dew Point 17 °F    
Average Humidity 79    
Maximum Humidity 96    
Minimum Humidity 59    
Precipitation  
Precipitation T in 0.00 in 0.40 in (1967)
Month to date precipitation 0.15 0.24  
Year to date precipitation 1.98 1.24  
Snow  
Snow T in 0.20 in 5.80 in (1967)
Month to date snowfall 2.9 4.8  
Since 1 July snowfall 59.7 61.1  
Snow Depth 21.00 in    
Sea Level Pressure  
Sea Level Pressure 29.24 in    
Wind  
Wind Speed 4 mph (SW)    
Max Wind Speed 16 mph    
Max Gust Speed 20 mph    
Visibility 9 miles    
Events Snow    
T = Trace of Precipitation, MM = Missing Value Source: NWS Daily Summary

Daily Weather History Graph

Daily Weather History Graph

Search for Another Location

Airport or City:

Trip Planner

Search our weather history database for the weather conditions in past years. The results will help you decide how hot, cold, wet, or windy it might be!

Date:

Astronomy

Mar. 30, 2011 Rise Set
Actual Time 7:15 AM AKDT 8:38 PM AKDT
Civil Twilight 6:24 AM AKDT 9:29 PM AKDT
Nautical Twilight 5:19 AM AKDT 10:34 PM AKDT
Astronomical Twilight 3:55 AM AKDT 12:01 AM AKDT
Moon 6:25 AM AKDT (3/30) 4:23 PM AKDT (3/30)
Length of Visible Light 15h 04m
Length of Day
13h 22m
Waning Crescent, 12% of the Moon is Illuminated
Mar 30
Waning Crescent
Apr 3
New
Apr 11
First Quarter
Apr 17
Full
Apr 24
Last Quarter

Hourly Weather History & Observations

Time (AKDT) Temp. Windchill Dew Point Humidity Pressure Visibility Wind Dir Wind Speed Gust Speed Precip Events Conditions
12:53 AM 19.9 °F 14.9 °F 18.0 °F 92% 29.11 in 10.0 mi NE 3.5 mph - N/A   Mostly Cloudy
1:53 AM 19.0 °F - 16.0 °F 88% 29.11 in 10.0 mi Calm Calm - N/A   Mostly Cloudy
2:53 AM 16.0 °F 8.8 °F 12.0 °F 84% 29.11 in 10.0 mi ESE 4.6 mph - N/A   Mostly Cloudy
3:53 AM 15.1 °F - 12.9 °F 91% 29.12 in 10.0 mi Calm Calm - N/A   Mostly Cloudy
4:53 AM 18.0 °F 12.7 °F 15.1 °F 88% 29.12 in 10.0 mi SSW 3.5 mph - N/A   Mostly Cloudy
5:53 AM 15.1 °F 9.4 °F 12.9 °F 91% 29.13 in 10.0 mi South 3.5 mph - N/A   Mostly Cloudy
6:53 AM 12.0 °F - 10.9 °F 95% 29.16 in 10.0 mi Calm Calm - N/A   Mostly Cloudy
7:53 AM 9.0 °F - 8.1 °F 96% 29.17 in 10.0 mi Calm Calm - N/A   Mostly Cloudy
8:53 AM 12.0 °F - 10.9 °F 95% 29.18 in 10.0 mi Calm Calm - N/A   Mostly Cloudy
9:53 AM 18.0 °F - 16.0 °F 92% 29.20 in 10.0 mi Calm Calm - N/A   Mostly Cloudy
10:53 AM 25.0 °F - 19.0 °F 78% 29.21 in 10.0 mi Calm Calm - N/A   Mostly Cloudy
11:53 AM 28.0 °F - 19.9 °F 72% 29.22 in 10.0 mi Calm Calm - N/A   Mostly Cloudy
12:53 PM 30.0 °F - 19.0 °F 64% 29.23 in 10.0 mi Calm Calm - N/A   Mostly Cloudy
1:53 PM 32.0 °F - 19.9 °F 61% 29.24 in 10.0 mi Calm Calm - N/A   Mostly Cloudy
2:53 PM 33.1 °F 24.9 °F 21.0 °F 61% 29.25 in 10.0 mi SSW 10.4 mph - N/A   Mostly Cloudy
3:53 PM 35.1 °F 28.6 °F 21.9 °F 59% 29.26 in 10.0 mi WSW 8.1 mph - N/A   Mostly Cloudy
4:53 PM 34.0 °F 25.5 °F 21.0 °F 59% 29.27 in 10.0 mi WSW 11.5 mph - N/A   Mostly Cloudy
5:53 PM 32.0 °F 21.2 °F 24.1 °F 73% 29.30 in 10.0 mi West 16.1 mph - N/A   Mostly Cloudy
6:53 PM 28.9 °F 19.2 °F 23.0 °F 78% 29.33 in 10.0 mi West 11.5 mph 18.4 mph 0.00 in Snow Light Snow
7:53 PM 28.0 °F 20.0 °F 21.0 °F 75% 29.36 in 5.0 mi West 8.1 mph 18.4 mph 0.00 in Snow Light Snow
8:53 PM 26.1 °F 14.0 °F 19.0 °F 75% 29.39 in 7.0 mi West 15.0 mph 19.6 mph 0.00 in   Overcast
9:53 PM 24.1 °F 13.7 °F 19.0 °F 81% 29.42 in 5.0 mi WSW 10.4 mph - 0.00 in Snow Light Snow
10:53 PM 23.0 °F 10.6 °F 17.1 °F 78% 29.44 in 5.0 mi WSW 13.8 mph - 0.00 in Snow Light Snow
11:53 PM 21.9 °F 11.7 °F 15.1 °F 75% 29.48 in 6.0 mi WSW 9.2 mph - 0.00 in Snow Light Snow